This is the latest recevied weather packets stored in our database for station/object KBTL-WX. If no packets are shown the sender has not sent any weather packets the latest 10 day(s).
| Time | Temp. | Humidity | Pressure | Rain* | Wind** | Luminosity | Snow |
|---|---|---|---|---|---|---|---|
| 1777263318 | 8.89° C | 63% | 982.5 hPa | 0 mm | - | - | - |
| 1777262435 | 9.44° C | 63% | 982.5 hPa | 0 mm | - | - | - |
| 1777261518 | 9.44° C | 58% | 983.8 hPa | 0 mm | - | - | - |
| 1777260626 | 10° C | 61% | 984.3 hPa | 0 mm | - | - | - |
| 1777259715 | 10° C | 61% | 984.3 hPa | 0 mm | - | - | - |
| 1777258836 | 10.56° C | 61% | 984.3 hPa | 0 mm | - | - | - |
| 1777257914 | 10.56° C | 58% | 984.8 hPa | 0 mm | - | - | - |
| 1777257028 | 11.11° C | 60% | 984.9 hPa | 0 mm | - | - | - |
| 1777256115 | 11.11° C | 60% | 984.8 hPa | 0 mm | - | - | - |
| 1777255231 | 11.67° C | 60% | 984.8 hPa | 0 mm | - | - | - |
| 1777254313 | 11.67° C | 61% | 984.3 hPa | 0 mm | - | - | - |
| 1777253424 | 12.22° C | 61% | 984.3 hPa | 0 mm | - | - | - |
| 1777252512 | 12.78° C | 61% | 984.2 hPa | 0 mm | - | - | - |
| 1777251631 | 13.33° C | 61% | 984.2 hPa | 0 mm | - | - | - |
| 1777249824 | 13.89° C | 55% | 985.4 hPa | 0 mm | - | - | - |
| 1777248917 | 15° C | 55% | 985.4 hPa | 0 mm | - | - | - |
| 1777248037 | 15.56° C | 55% | 985.4 hPa | 0 mm | - | - | - |
| 1777247115 | 16.11° C | 52% | 983.6 hPa | 0 mm | - | - | - |
| 1777246228 | 16.67° C | 53% | 985.4 hPa | 0 mm | - | - | - |
| 1777245317 | 17.22° C | 53% | 985.4 hPa | 0 mm | - | - | - |
| 1777244427 | 17.78° C | 53% | 985.4 hPa | 0 mm | - | - | - |
| 1777243517 | 18.33° C | 46% | 984.2 hPa | 0 mm | - | - | - |
| 1777242624 | 18.33° C | 51% | 985.5 hPa | 0 mm | - | - | - |
| 1777241714 | 18.33° C | 51% | 985.4 hPa | 0 mm | - | - | - |
| 1777240833 | 18.89° C | 51% | 985.4 hPa | 0 mm | - | - | - |
* Rain latest hour (hover to see other rain measurements)
** Current wind speed in m/s (hover to see current wind gust speed)